Время (UTC), дата Ветер
(°,м/с) 
Видим.   Явления Облачность Т
(°С)
Тd
(°С)
f(%) Тe
(°С)
Pmin
(гПа)
dP
(гПа)
Po
(мм)
O2
(г/м3)
Тmin Tmax R s Состояние
почвы
00 01.12.10 310 (СЗ) >10 км  в посл. час ливневой дождь  10/8 800 м кучево-дожд., средняя 
[Cb calv|Ac und]
+6.5 +2.8 77 +6  1015.1  1.1  721  283           
03 01.12.10 270 (З) >10 км    10/8 800 м кучево-дожд., средняя 
[Cb calv|Ac und]
+5 +3 87 +3  1015.8  0.3  721  285           
06 01.12.10 270 (З) >10 км    10/5 480 м кучево-дожд., средняя 
[Cb calv|Ac und]
+4.4 +2.8 89 +3  1016.9  0.9  722  286  +4.2       
09 01.12.10 330 (СЗ) >10 км  в посл. час ливневой дождь  10/6 480 м кучево-дожд., средняя 
[Cb calv|Ac und]
+2.1 -0.1 85 1018  0.6  722  289           
12 01.12.10 310 (СЗ) 10 км  {ливн. осадки, дождь}  10/8 210 м средняя 
[St|Ac und]
+1.9 +0.9 93 1019.4  1.2  723  289           
15 01.12.10 тихо ()   10 км    10/8 300 м средняя 
[Sc|Ac und]
+1.8 +0.9 94 +2  1020.3  0.8  724  289           
18 01.12.10 110 (В) 4000 м  дымка{морось}  10/8 600 м средняя 
[Sc diur, vesp|Ac und]
+1.9 +1.5 97 1019.7  -0.5  723  289    +4.4  0.5     
21 01.12.10 080 (В) 0100 м  слаб. морось{туман}  ?/?  
+1.2 +1 99 -2  1019  -0.8  723  290           
00 02.12.10 080 (В) 0100 м  туман{морось}  ?/?  
+0.3 +0.2 99 -2  1018.3  -0.8  722  291           
03 02.12.10 070 (В) 0100 м  туман  ?/?  
+0.1 -0 99 -3  1018  -0.4  722  291           
06 02.12.10 080 (В) 0100 м  слаб. дождь{морось}  ?/?  
+0.2 +0.1 99 -3  1018.9  0.9  723  291  -0.3    0.4     
09 02.12.10 090 (В) 0200 м  слаб. дождь{туман}  ?/?  
+0.6 +0.5 99 -3  1019.6  0.8  723  291           
12 02.12.10 110 (В) 0200 м  туман{дождь}  ?/?  
+0.4 +0.4 100 -3  1020.3  0.6  724  291           
15 02.12.10 090 (В) 0300 м  туман{дождь}  ?/?  
-0.5 -0.6 99 -4  1022.9  2.2  725  293           
18 02.12.10 100 (В) 11  0600 м  [диам. гололёда 2 мм]  1/1 50 м 
-1.1   1024.4  1.3  726      +0.8     
21 02.12.10 130 (ЮВ) 10 км  {морось, туман} [диам. гололёда 3 мм]  10/10 120 м 
[St]
-0.5 -0.5 100 -4  1024.7  0.4  727  293           
00 03.12.10 130 (ЮВ) >10 км  {морось, туман} [диам. гололёда 3 мм]  10/10 150 м 
[St]
-0.2 -0.3 99 -4  1025.4  0.7  727  293           
03 03.12.10 140 (ЮВ) >10 км  в посл. час ливневой дождь  10/8 180 м кучево-дожд., средняя 
[Cb cap|Ac und]
+0.4 +0.3 99 -3  1025.1  -0.2  727  292           
06 03.12.10 150 (ЮВ) >10 км  слаб. ливневой дождь  10/6 200 м кучево-дожд., средняя 
[Cb cap|Ac und]
+1.5 +1.3 99 -2  1027  728  292  -1.1       
09 03.12.10 150 (ЮВ) >10 км  слаб. ливневой дождь  10/6 1000 м кучево-дожд., средняя 
[Cb cap|Ac und]
+3.6 +3.3 98 +1  1025.9  -0.6  728  289           
12 03.12.10 160 (Ю) >10 км  {ливн. осадки}  10/3 1000 м средняя 
[Sc|Ac und]
+9.2 +7 86 +9  1024  -0.6  728  282           
15 03.12.10 170 (Ю) >10 км    6/3 1000 м средняя 
[Sc|Ac und]
+9.7 +6.9 83 +9  1024.4  0.5  728  282           
18 03.12.10 160 (Ю) >10 км    3/0 средняя 
[Ac trans]
+14 +7.6 65 +14  1024.1  0.5  728  278    +11.5     
21 03.12.10 140 (ЮВ) >10 км    3/0 средняя 
[Ac trans]
+10.1 +6.5 78 +9  1024.7  -0.2  728  282           
00 04.12.10 160 (Ю) >10 км    3/0 средняя 
[Ac trans]
+9.9 +6.2 78 +9  1023.9  -0.8  728  282           
03 04.12.10 120 (ЮВ) >10 км    1/0 средняя 
[Ac trans]
+10.1 +5.7 74 +10  1023.3  -0.6  727  282           
06 04.12.10 120 (ЮВ) >10 км    6/0 средняя 
[Ac trans]
+11.8 +6.6 70 +11  1022.9  727  280  +9.1         
09 04.12.10 120 (ЮВ) >10 км    6/0 средняя 
[Ac trans]
+16.3 +8.6 60 +16  1020.6  -1.4  726  275           
12 04.12.10 150 (ЮВ) >10 км    6/0 верхняя 
[Ci fib]
+14.4 +8.3 67 +14  1019.1  -1.7  725  276           
15 04.12.10 150 (ЮВ) >10 км    3/0 средняя 
[Ac trans]
+7.9 +6 88 +5  1019.2  -1.1  724  282           
18 04.12.10 150 (ЮВ) >10 км    10/10 100 м 
[St]
+8 +7.6 97 +5  1017.8  -1.3  723  282    +16.8       
21 04.12.10 150 (ЮВ) 2500 м  дымка  10/10 210 м 
[St]
+7.7 +7.5 99 +5  1015.5  -2.1  721  281           
00 05.12.10 160 (Ю) 10 км  {туман}  4/3 330 м средняя 
[Sc|Ac trans]
+6.8 +6.1 95 +6  1014.4  -1.3  720  282           
03 05.12.10 150 (ЮВ) >10 км    ясно 
+5.8 +5.5 98 +5  1013  -1.6  719  283           
06 05.12.10 200 (Ю) >10 км    8/0 средняя, верхняя 
[Ac trans|Ci fib]
+11 +7.9 81 +11  1011.2  -0.6  719  277  +5         
09 05.12.10 190 (Ю) >10 км    9/0 средняя 
[Ac trans]
+20.7 +7.1 41 +21  1009.1  -0.3  718  268           
12 05.12.10 340 (С) >10 км    9/0 средняя 
[Ac trans]
+18 +8.2 53 +19  1008.9  -0.6  718  270           
15 05.12.10 010 (С) >10 км    4/0 средняя 
[Ac trans]
+13.8 +5.1 56 +14  1010  0.2  718  275           
18 05.12.10 160 (Ю) >10 км    10/0 средняя 
[Ac und]
+12.2 +4.6 60 +13  1010.7  0.4  718  276    +22       
21 05.12.10 310 (СЗ) >10 км    6/0 средняя 
[Ac trans]
+13 +3.3 52 +13  1010.9  0.3  719  276           
00 06.12.10 290 (З) >10 км    6/0 средняя 
[Ac trans]
+9.7 +7.9 89 +8  1011.9  0.4  719  278           
03 06.12.10 270 (З) 0200 м  туман  ?/?  
+6.4 +6.3 99 +4  1014.1  1.4  720  282           
06 06.12.10 280 (З) 0500 м  туман  ?/?  
+5.9 +5.8 99 +4  1016.9  2.6  722  284  +5.6         
09 06.12.10 290 (З) 0200 м  слаб. морось{туман}  ?/?  
+4.4 +4.2 99 +3  1018.3  0.9  723  286           
12 06.12.10 290 (З) 1100 м  слаб. морось{туман}  10/10 100 м 
[St]
+3.2 +3 99 +1  1019.8  1.2  724  288           
15 06.12.10 320 (СЗ) 0800 м  туман{морось}  ?/?  
+2.8 +2.7 99 +2  1021.7  1.7  725  289           
18 06.12.10 340 (С) 0100 м  туман{морось}  ?/?  
+1.7 +1.7 100 +1  1022.7  0.7  725  290    +5.9  0.3     
21 06.12.10 010 (С) 0100 м  туман  ?/?  
+1.4 +1.3 99 +1  1022.5  -0.2  725  290           
00 07.12.10 110 (В) 0100 м  туман  ?/?  
+1.6 +1.5 99 1022.3  -0.1  725  290           
03 07.12.10 120 (ЮВ) 0100 м  туман  ?/?  
+1.7 +1.6 99 1022  -0.3  725  290           
06 07.12.10 120 (ЮВ) 0100 м  туман  ?/?  
+2.8 +2.7 99 +1  1022.2  0.4  725  289  +1.3         
09 07.12.10 150 (ЮВ) >10 км  {туман}  10/10 120 м 
[St]
+4.9 +4.9 100 +3  1020.4  -0.1  724  286           
12 07.12.10 140 (ЮВ) >10 км  {туман}  10/10 120 м 
[St]
+3.7 +3.1 96 +1  1020.6  724  287           
15 07.12.10 140 (ЮВ) 4000 м  слаб. морось  10/10 60 м 
[St]
+3.3 +3 98 +1  1021.3  0.6  725  288           
18 07.12.10 150 (ЮВ) 0100 м  слаб. морось{туман}  ?/?  
+3.1 +2.9 99 1020.6  -0.7  724  288    +5.2  0.0     
21 07.12.10 160 (Ю) 0100 м  туман{морось}  ?/?  
+3.2 +3.1 99 +1  1020.2  -0.4  724  288           
00 08.12.10 170 (Ю) 0400 м  туман{морось}  ясно 
+1.5 +1.4 99 +2  1020.9  0.3  724  290           
03 08.12.10 240 (ЮЗ) >10 км  местами туман поземный  ясно 
+2.2 +2.1 99 +3  1021  0.3  724  289           
06 08.12.10 170 (Ю) 10 км  {туман}  5/0 верхняя 
[Ci fib]
+3.4 +3.4 100 +4  1021.9  1.1  725  288  +0.4    0.0    влажная 
09 08.12.10 180 (Ю) >10 км    ?/?  
[Ac trans|Ci fib]
+8.7 +2.6 65 +10  1020.4  -0.5  725  283           
12 08.12.10 140 (ЮВ) >10 км    8/0 средняя, верхняя 
[Ac trans|Ci fib]
+10.1 -5.6 33 +11  1019.7  -0.4  725  282           
15 08.12.10 140 (ЮВ) >10 км    10/0 средняя 
[Ac und]
+6.1 +5.2 94 +6  1020.9  0.4  725  285           
18 08.12.10 170 (Ю) >10 км    10/0 средняя 
[Ac und]
+6.4 +4 85 +5  1020.3  -0.5  724  285    +10.7       
21 08.12.10 180 (Ю) >10 км    6/0 средняя 
[Ac trans]
+5.3 +3.2 86 +4  1020.1  -0.4  724  286           
00 09.12.10 190 (Ю) >10 км    ясно 
+6.3 +3 79 +6  1019.5  -0.4  724  285           
03 09.12.10 170 (Ю) >10 км    ясно 
+7 +1.8 69 +7  1018.3  -1  723  284           
06 09.12.10 160 (Ю) >10 км    8/0 средняя 
[Ac trans]
+7.9 +3.1 72 +9  1017.9  -0.2  723  283  +4.5         
09 09.12.10 130 (ЮВ) >10 км    3/0 средняя 
[Ac trans]
+11.8 +2.7 54 +12  1015.4  -1.6  722  278           
12 09.12.10 130 (ЮВ) >10 км    4/0 средняя 
[Ac trans]
+11.4 +4.4 62 +10  1013.6  -1.8  720  278           
15 09.12.10 160 (Ю) >10 км    4/0 средняя 
[Ac trans]
+5.4 -2.9 55 +4  1013.8  -1  720  285           
18 09.12.10 140 (ЮВ) >10 км    4/0 средняя 
[Ac trans]
+2.2 -0.8 81 1012.9  -1.4  719  287    +12.3       
21 09.12.10 120 (ЮВ) >10 км    5/0 средняя 
[Ac trans]
-0.5 -1.1 96 -4  1011.8  -1.5  717  290           
00 10.12.10 130 (ЮВ) 10 км    4/4 200 м 
[St]
-0.6 -0.9 98 -5  1010.4  -1.4  716  289           
03 10.12.10 130 (ЮВ) 1000 м  дымка  3/3 200 м 
[St]
-0.2 -0.4 99 -3  1008.2  -1.9  715  288           
06 10.12.10 130 (ЮВ) >10 км    6/0 средняя 
[Ac trans]
+2.4 +1.1 91 1006.2  -1.4  714  285  -1.1         
09 10.12.10 130 (ЮВ) >10 км    4/0 средняя 
[Ac trans]
+7.1 +2.5 73 +5  1003.6  -1.6  713  279           
12 10.12.10 100 (В) >10 км    9/0 средняя 
[Ac trans]
+7.2 +3.3 76 +5  1001.9  -1.6  712  279           
15 10.12.10 120 (ЮВ) >10 км    10/5 600 м кучево-дожд., средняя 
[Cb calv|Ac und]
+4.2 +2.3 88 +2  1002.2  -0.3  711  282           
18 10.12.10 130 (ЮВ) >10 км  {ливн. осадки}  10/1 300 м кучево-дожд., средняя 
[Cb calv|Ac und]
+3.6 +2.2 91 +1  1001  -1.2  710  282    +9.2       
21 10.12.10 110 (В) >10 км    6/0 средняя 
[Ac trans]
+2.1 +1.2 94 +1  1000.9  -0.4  710  284           
00 11.12.10 150 (ЮВ) >10 км    8/0 средняя 
[Ac trans]
+2.6 +1.7 94 +1  1000.5  -0.3  710  283           
03 11.12.10 280 (З) >10 км    3/0 средняя 
[Ac trans]
+1.8 +0.8 93 1001.7  0.9  711  284           
06 11.12.10 360 (С) 0500 м  туман  ?/?  
+4.5 +4.3 99 +5  1001.5  0.3  711  281  +1.3         
09 11.12.10 040 (СВ) 0300 м  слаб. морось{туман}  ?/?  
+4.1 +4 99 +4  999.8  -1.7  710  281           
12 11.12.10 120 (ЮВ) 1500 м  слаб. морось{туман}  10/10 60 м 
[St]
+3.7 +3.6 99 +5  999.7  -0.2  709  281           
15 11.12.10 080 (В) 2500 м  слаб. морось{туман}  10/10 60 м 
[St]
+3.9 +3.8 99 +3  999.8  -0.1  710  281           
18 11.12.10 080 (В) 0100 м  слаб. морось{туман}  ?/?  
+4.6 +4.5 99 +5  999  -0.6  709  280    +4.6  0.4     
21 11.12.10 090 (В) 0100 м  туман{морось}  ?/?  
+4.6 +4.5 99 +4  998.5  -0.5  709  280           
00 12.12.10 100 (В) 0100 м  туман{морось}  ?/?  
+4.9 +4.9 100 +3  998  -0.3  708  280           
03 12.12.10 110 (В) 0100 м  туман  ?/?  
+4.9 +4.8 99 +3  998.3  0.3  709  280           
06 12.12.10 090 (В) 0100 м  туман  н/о 
+4.9 +4.8 99 +6  1000.2  1.7  710  280  +4.5    0.3     
09 12.12.10 110 (В) 0200 м  туман  н/о 
+5.3 +5.2 99 +4  999.4  -0.7  710  279           
12 12.12.10 100 (В) 4000 м  дымка{туман}  10/10 120 м 
[St]
+5.4 +5.3 99 +3  997.6  -1.7  708  279           
15 12.12.10 100 (В) 10 км    10/10 120 м 
[St]
+5.2 +5 99 +4  999.6  1.8  710  280           
18 12.12.10 080 (В) 0100 м  туман  ?/?  
+4.6 +4.5 99 +5  1000.1  0.4  710  280    +5.8       
21 12.12.10 тихо ()   0100 м  туман  10/10 100 м 
[]
+4.6 +4.5 99 +5  999.6  -0.5  710  280           
00 13.12.10 250 (З) 0300 м  слаб. морось{туман}  ?/? 120 
+4.8 +4.7 99 +3  1001.8  2.1  711  281           
03 13.12.10 290 (З) 2000 м  ливневой дождь{морось}  10/8 240 м кучево-дожд., средняя 
[Cb cap|Ac und]
+3.2 +2.9 98 +1  1003.1  0.9  712  283           
06 13.12.10 270 (З) 0200 м  туман{ливн. осадки, морось}  ?/?  
+1.2 +1 99 -2  1006.1  2.4  714  286         
09 13.12.10 260 (З) 10  0200 м  туман  ?/?  
+0.5 +0.4 99 -4  1006.8  0.6  714  287           
12 13.12.10 260 (З) 10  10 км  {туман}  9/9 240 м 
[St]
+0.1 -0.8 94 -5  1008.8  1.8  715  288           
15 13.12.10 270 (З) 10  10 км    8/8 210 м 
[St]
-1 -1.9 93 -6  1011.8  2.6  717  290           
18 13.12.10 270 (З) >10 км    3/0 средняя 
[Ac trans]
-2 -3.1 92 -6  1014  1.9  719  292    +1.2     
21 13.12.10 250 (З) >10 км    3/0 средняя 
[Ac trans]
-3.1 -4.6 89 -6  1015.1  0.8  719  294           
00 14.12.10 230 (ЮЗ) >10 км    3/0 средняя 
[Ac trans]
-4.6 -6.1 89 -8  1015.9  0.4  720  296           
03 14.12.10 210 (ЮЗ) >10 км    3/0 средняя 
[Ac trans]
-3.8 -6.2 84 -5  1015.8  0.1  720  295           
06 14.12.10 120 (ЮВ) >10 км    8/0 средняя 
[Ac trans]
-1.8 -4.3 83 -4  1014  -1.3  719  292  -4.9         
09 14.12.10 100 (В) >10 км    10/0 средняя 
[Sc|Ac und]
+0.4 -2.9 78 -2  1012.5  718  289           
12 14.12.10 090 (В) >10 км    9/4 600 м средняя 
[Sc|Ac trans]
+1.6 -1.1 82 -1  1011.4  -0.8  717  287           
15 14.12.10 130 (ЮВ) >10 км    8/4 600 м средняя 
[Sc|Ac trans]
+0.6 -1.4 86 -2  1011.6  717  288           
18 14.12.10 150 (ЮВ) >10 км    10/5 600 м кучево-дожд., средняя 
[Cb calv|Ac und]
+1.1 -1.9 80 -2  1011.9  0.3  718  288           
21 14.12.10 220 (ЮЗ) >10 км    8/8 <0100 м средняя 
[Ac trans]
+0.2 -1.8 86 +1  1013.6  1.5  719  290           
00 15.12.10 170 (Ю) >10 км    6/6 <0100 м средняя 
[Ac trans]
+0.7 -1 88 +1  1014.7  1.1  720  289           
03 15.12.10 180 (Ю) >10 км    9/0 средняя 
[Ac trans]
+1.6 -0.7 85 +1  1014.7  1.1  720  288           
06 15.12.10 160 (Ю) >10 км    8/4 1000 м средняя 
[Sc|Ac trans]
+3.5 +1 84 +3  1015.6  1.1  721  286  -0.1         
09 15.12.10 180 (Ю) >10 км    10/3 600 м средняя 
[Sc|Ac und]
+6.1 +2.2 76 +6  1015.7  0.6  721  284           
12 15.12.10 170 (Ю) >10 км    10/3 600 м средняя 
[Sc|Ac und]
+6.7 +3.2 78 +8  1016.9  1.3  722  283           
15 15.12.10 200 (Ю) >10 км    10/5 600 м кучево-дожд., средняя 
[Cb calv|Ac und]
+5.1 +2.5 83 +5  1018.9  1.6  723  286           
18 15.12.10 310 (СЗ) >10 км  {ливн. осадки}  10/4 1000 м кучево-дожд., средняя 
[Cb cap|Ac und]
+5.7 -0.4 65 +7  1019.7  0.8  724  286    +6.8       
21 15.12.10 180 (Ю) >10 км    8/3 1000 м средняя 
[Sc diur, vesp|Ac trans]
+2.4 +2 97 +3  1020  -0.3  724  289           
00 16.12.10 120 (ЮВ) >10 км    1/0 средняя 
[Ac trans]
+1.9 +0.4 90 1020  -0.3  724  289           
03 16.12.10 120 (ЮВ) >10 км  {туман}  3/0 средняя 
[Ac trans]
+1.1 +0.1 93 -1  1019.2  -0.9  723  290           
06 16.12.10 140 (ЮВ) >10 км  {туман}  6/3 600 м средняя 
[Sc|Ac trans]
+2.8 +1.6 92 +1  1018.8  723  288  +0.4         
09 16.12.10 150 (ЮВ) >10 км    9/3 600 м средняя 
[Sc|Ac trans]
+5 +3.7 91 +3  1017.7  -0.6  722  285           
12 16.12.10 120 (ЮВ) >10 км    9/3 600 м средняя 
[Sc|Ac trans]
+5.6 +4.4 92 +4  1016  -1.5  721  284           
15 16.12.10 120 (ЮВ) >10 км    10/10 150 м 
[St]
+4 +3.3 95 +4  1016.4  0.1  721  286           
18 16.12.10 120 (ЮВ) 0200 м  туман  н/о 
+3.1 +2.9 99 +1  1015.1  -1.5  720  286    +5.7       
21 16.12.10 140 (ЮВ) н/о  дымка{туман}  10/10 150 м 
[St]
+2.7 +2.1 96 1013.4  -1.6  719  286           
00 17.12.10 140 (ЮВ) 2000 м  дымка{туман}  10/10 100 м 
[St]
+2 +1.8 99 -1  1011  -2.4  717  287           
03 17.12.10 150 (ЮВ) 4000 м  дымка  10/10 100 м 
[St]
+2.2 +1.9 98 -1  1009.1  -1.8  716  286           
06 17.12.10 130 (ЮВ) 4000 м  дымка  10/8 120 м средняя 
[St|Ac und]
+2.3 +1.9 97 1008.6  -0.5  716  286  +2         
09 17.12.10 120 (ЮВ) 10 км    9/5 180 м средняя, верхняя 
[St|Ac trans|Ci fib]
+5.4 +3.4 87 +3  1006.4  -1.4  714  282           
12 17.12.10 110 (В) >10 км    10/5 300 м средняя 
[Sc|Ac und]
+3.5 +2.4 92 +1  1006.1  -0.6  714  284           
15 17.12.10 140 (ЮВ) >10 км    10/8 120 м средняя 
[St|Ac und]
+2.9 +2.3 96 1006.5  0.2  714  284           
18 17.12.10 140 (ЮВ) 10 км    10/6 120 м средняя 
[St|Ac und]
+2.5 +2.2 98 1007  0.4  714  285    +6.3       
21 17.12.10 040 (СВ) >10 км    8/4 300 м средняя 
[Sc|Ac trans]
+1 +0.7 98 1008.5  1.1  715  287           
00 18.12.10 160 (Ю) >10 км    10/3 300 м средняя 
[Sc diur, vesp|Ac und]
+3.2 +1.6 89 +4  1009.3  1.2  716  285           
03 18.12.10 330 (СЗ) >10 км    9/4 600 м средняя 
[Sc|Ac trans]
+5.7 +2.9 82 +5  1009.2  0.4  716  282           
06 18.12.10 180 (Ю) >10 км  в посл. час туман  8/3 600 м средняя 
[Sc|Ac trans]
+3.6 +2.9 95 +4  1010.2  0.5  717  285  +0.3         
09 18.12.10 180 (Ю) >10 км    10/3 600 м средняя 
[Sc|Ac und]
+6.5 +3.5 81 +7  1008.5  -1  716  281           
12 18.12.10 360 (С) 1200 м  дымка{туман}  10/10 60 м 
[St]
+3.9 +3.6 98 +3  1008.6  -0.4  716  284           
15 18.12.10 290 (З) 2000 м  слаб. ливневой снег  10/8 120 м кучево-дожд., средняя 
[Cb cap|Ac und]
+0.2 -0.2 97 -4  1013.9  4.3  719  289           
18 18.12.10 280 (З) >10 км  слаб. ливневой снег  8/5 600 м кучево-дожд., средняя 
[Cb cap|Ac trans]
-0.1 -0.4 98 -4  1017.1  2.9  721  291    +7       
21 18.12.10 310 (СЗ) 0300 м  туман  ?/?  
-0 -0.1 99 -2  1018.7  1.5  722  291           
00 19.12.10 330 (СЗ) >10 км  {ливн. осадки, туман}  4/3 300 м средняя 
[Sc|Ac trans]
-0.2 -0.4 99 -1  1019.8  723  292           
03 19.12.10 220 (ЮЗ) н/о    н/о 
-1.1 -1.4 98 -2  1020.6  0.6  724  293           
06 19.12.10 170 (Ю) >10 км    4/0 верхняя 
[Ci fib]
+0.3 -0.7 93 -1  1020.3  724  291  -3.5         
09 19.12.10 150 (ЮВ) >10 км    3/0 верхняя 
[Ci fib]
+5.9 +1.6 74 +4  1017.9  -1.2  723  285           
12 19.12.10 140 (ЮВ) >10 км    ясно 
+6.7 -0.2 61 +5  1017  -0.7  722  284           
15 19.12.10 150 (ЮВ) >10 км    3/0 средняя 
[Ac trans]
+2.8 -1 76 +1  1018.3  0.5  722  288           
18 19.12.10 170 (Ю) >10 км    4/0 средняя 
[Ac trans]
+4.4 -2.2 62 +2  1017.7  -0.2  722  287    +6.9       
21 19.12.10 280 (З) >10 км  слаб. ливневой дождь  10/4 600 м кучево-дожд., средняя 
[Cb cap|Ac und]
+7.6 +1.2 64 +5  1019  1.9  724  283           
00 20.12.10 300 (СЗ) >10 км  в посл. час ливневой дождь  10/4 200 м кучево-дожд., средняя 
[Cb cap|Ac und]
+1.5 -0 90 -3  1024.1  3.6  726  291           
03 20.12.10 280 (З) >10 км    6/3 600 м кучево-дожд., средняя 
[Cb calv|Ac trans]
-0.1 -2.1 86 -4  1026.7  2.1  728  294           
06 20.12.10 240 (ЮЗ) >10 км    6/0 средняя 
[Ac trans]
-0.3 -2.2 87 -3  1028.8  729  294  -1.3         
09 20.12.10 130 (ЮВ) >10 км    8/0 средняя, верхняя 
[Ac trans|Ci fib]
+2.8 -2.1 70 +1  1028.5  0.3  730  291           
12 20.12.10 120 (ЮВ) >10 км    3/0 верхняя 
[Ci fib]
+4.9 -4.1 52 +5  1027.5  -0.5  729  289           
15 20.12.10 110 (В) >10 км    5/5 480 м 
[Sc]
+0.7 -4.1 70 -2  1028.4  729  294    +6       
18 20.12.10 130 (ЮВ) >10 км    8/4 300 м средняя 
[Sc|Ac trans]
+2.1 +1.1 93 -1  1027.2  -0.8  729  291    +6       
21 20.12.10 140 (ЮВ) >10 км    4/0 средняя 
[Ac trans]
+1.9 -0.2 86 1026.3  -0.9  728  291           
00 21.12.10 140 (ЮВ) н/о    н/о 
+1.6 -1.7 79 -1  1026  -0.4  728  292           
03 21.12.10 160 (Ю) >10 км    3/0 средняя 
[Ac trans]
+2.1 -1.4 78 -1  1025.5  -0.4  727  291           
06 21.12.10 150 (ЮВ) >10 км    8/3 600 м средняя 
[Sc|Ac trans]
+3.7 -0.7 73 +2  1025.3  0.2  728  289  +0.3         
09 21.12.10 160 (Ю) >10 км    6/0 средняя 
[Ac trans]
+9 +1.4 59 +8  1023.3  -0.9  727  283           
12 21.12.10 160 (Ю) >10 км    8/0 средняя 
[Ac trans]
+9.9 +2.6 60 +10  1022.9  -0.9  727  282           
15 21.12.10 200 (Ю) >10 км    8/0 средняя 
[Ac trans]
+5.4 +3.3 86 +5  1024.6  0.8  727  287    +10.1       
18 21.12.10 190 (Ю) >10 км    8/0 средняя 
[Ac trans]
+9 -0.9 50 +10  1023.8  0.1  727  284    +10.1       
21 21.12.10 тихо ()   >10 км    8/0 средняя 
[Ac trans]
+8.9 -2.8 44 +9  1024.3  0.4  728  284           
00 22.12.10 190 (Ю) >10 км    8/0 средняя 
[Ac trans]
+8.5 -1.3 50 +9  1024.4  728  284           
03 22.12.10 190 (Ю) >10 км    9/0 средняя 
[Ac trans]
+10.6 -4.5 34 +10  1024  728  283           
06 22.12.10 240 (ЮЗ) >10 км    8/3 600 м средняя 
[Sc|Ac trans]
+11.8 -2.8 36 +12  1024.4  0.6  728  281  +4.6         
09 22.12.10 290 (З) >10 км    5/0 средняя 
[Ac trans]
+17.7 +0.7 32 +18  1022.8  -0.4  728  275           
12 22.12.10 300 (СЗ) >10 км    3/0 средняя 
[Ac trans]
+16.6 -0.2 32 +17  1022.5  -0.5  727  276           
15 22.12.10 050 (СВ) >10 км    1/0 средняя 
[Ac trans]
+9.8 +4.6 70 +11  1024  0.3  728  282    +18.1       
18 22.12.10 тихо ()   >10 км    3/0 верхняя 
[Ci sp]
+7.9 +2.3 68 +8  1024.2  -0.2  727  284    +18.1       
21 22.12.10 210 (ЮЗ) >10 км    ясно 
+9.9 +1.5 56 +10  1023.4  -0.4  727  282           
00 23.12.10 290 (З) >10 км    ясно 
+10.2 +1.7 56 +10  1022.9  -0.4  727  282           
03 23.12.10 240 (ЮЗ) >10 км    ясно 
+6.9 +1.4 68 +6  1023  -0.6  726  285           
06 23.12.10 230 (ЮЗ) >10 км    3/0 верхняя 
[Ci]
+9.7 +3.8 67 +10  1022.4  726  282  +6.2         
09 23.12.10 120 (ЮВ) >10 км    3/0 верхняя 
[Ci fib]
+15.8 +3.6 44 +17  1020.6  726  276           
12 23.12.10 060 (СВ) >10 км    3/0 верхняя 
[Ci fib]
+14.6 +6.6 59 +15  1019.7  -1  725  276           
15 23.12.10 090 (В) >10 км    ясно 
+8.5 +4 73 +8  1021.1  0.2  725  283    +16       
18 23.12.10 140 (ЮВ) >10 км    ясно 
+9.3 +3.6 68 +9  1020.4  -0.6  725  282    +16       
21 23.12.10 180 (Ю) >10 км    ясно 
+5.8 +2.5 79 +5  1020.9  -0.2  725  286           
00 24.12.10 170 (Ю) >10 км    ясно 
+5 +1 75 +3  1020.6  -0.5  724  286           
03 24.12.10 150 (ЮВ) >10 км    ясно 
+6.5 -0.1 63 +6  1019.9  -0.4  724  285           
06 24.12.10 160 (Ю) >10 км    1/0 
[]
+7.3 +0.4 62 +6  1020.7  0.9  725  284  +4.2         
09 24.12.10 160 (Ю) >10 км    3/0 верхняя 
[Ci fib]
+12.5 -1.9 37 +12  1018.9  -0.7  724  279           
12 24.12.10 120 (ЮВ) >10 км    3/0 верхняя 
[Ci fib]
+13.2 -0.4 39 +13  1018.1  -0.5  724  278           
15 24.12.10 160 (Ю) >10 км    1/0 верхняя 
[Ci fib]
+6.7 -0.8 59 +6  1019.7  0.3  724  285    +13.8       
18 24.12.10 150 (ЮВ) >10 км    ясно 
+5.5 -1.1 62 +4  1019.8  -0.2  724  286    +13.8       
21 24.12.10 120 (ЮВ) >10 км    ясно 
+3.1 +0.4 82 +1  1019.2  -1  723  288           
00 25.12.10 120 (ЮВ) >10 км    ясно 
+1.3 -1.3 83 -1  1019.7  0.1  723  290           
03 25.12.10 150 (ЮВ) >10 км    ясно 
+3.5 -2.8 63 +1  1019  -0.3  723  288           
06 25.12.10 190 (Ю) >10 км    3/0 верхняя 
[Ci fib]
+4.2 -1.7 65 +4  1019.2  0.4  723  287  +1.3         
09 25.12.10 120 (ЮВ) >10 км    4/0 верхняя 
[Ci fib]
+8.4 +1 60 +8  1018  -0.3  723  282           
12 25.12.10 150 (ЮВ) >10 км    4/0 верхняя 
[Ci fib]
+11.4 +1.5 51 +13  1016.6  -0.8  722  279           
15 25.12.10 130 (ЮВ) >10 км    3/0 средняя 
[Ac trans]
+3.3 +1.2 86 +2  1017.2  -0.9  722  287    +11.7       
18 25.12.10 170 (Ю) >10 км    ясно 
+2.2 -1.2 78 +1  1017.3  -0.5  722  289    +11.4       
21 25.12.10 150 (ЮВ) >10 км    ясно 
+0.7 -3.3 75 -1  1016.2  -1.1  721  290           
00 26.12.10 160 (Ю) н/о    ясно 
+3.8 -4.4 55 +3  1015.2  -0.4  720  287           
03 26.12.10 200 (Ю) >10 км    5/0 верхняя 
[Ci fib]
+5.6 -8.3 36 +5  1014.7  -0.1  720  285           
06 26.12.10 010 (С) >10 км    9/0 верхняя 
[Ci fib]
+10.1 -11 21 +10  1015.1  1.1  721  281  -0.6         
09 26.12.10 тихо ()   н/о    н/о 
+16.9 -7.8 18 +17  1013.9  0.1  721  274           
12 26.12.10 150 (ЮВ) >10 км    10/3 1000 м средняя 
[Sc|Ac und]
+12.2 -4 32 +13  1014.9  -0.1  721  279           
15 26.12.10 360 (С) >10 км    10/0 средняя 
[Ac und]
+10.4 -7.1 28 +12  1016.4  1.1  722  281    +17.3       
18 26.12.10 320 (СЗ) >10 км    8/0 средняя 
[Ac trans]
+8.6 -7.5 31 +9  1017.4  0.6  723  283    +17.3       
21 26.12.10 330 (СЗ) >10 км    10/0 средняя 
[Ac und]
+10.8 -9.7 23 +10  1017.6  0.6  723  281           
00 27.12.10 290 (З) >10 км    10/0 средняя 
[Ac und]
+10.3 -9.4 24 +10  1018.4  0.6  724  282           
03 27.12.10 230 (ЮЗ) >10 км    8/0 средняя 
[Ac trans]
+9.5 +3.7 67 +10  1018.4  724  281           
06 27.12.10 200 (Ю) >10 км    8/0 средняя, верхняя 
[Ac trans|Ci]
+10 +1 54 +10  1019  0.6  724  281  +7.4         
09 27.12.10 180 (Ю) >10 км    10/0 средняя, верхняя 
[Ac As|Ci]
+13.2 +0.7 42 +14  1017.9  -0.5  724  278           
12 27.12.10 130 (ЮВ) >10 км    10/0 средняя, верхняя 
[Ac As|Ci sp]
+12.6 +4.6 58 +13  1018  -0.1  724  278           
15 27.12.10 130 (ЮВ) >10 км  в посл. час ливневой дождь  10/3 1000 м кучево-дожд., средняя 
[Cb cap|Ac und]
+9.9 +5.3 73 +9  1018.6  0.1  724  281    +13.4       
18 27.12.10 130 (ЮВ) >10 км  {ливн. осадки}  10/3 1000 м кучево-дожд., средняя 
[Cb cap|Ac und]
+9.4 +2.9 64 +9  1019  0.2  724  281    +13.4       
21 27.12.10 260 (З) >10 км    10/0 средняя 
[Ac und]
+8.2 +3.9 74 +9  1019.4  0.2  724  283           
00 28.12.10 310 (СЗ) >10 км    8/0 средняя 
[Ac trans]
+8.1 +2.7 69 +8  1019.4  -0.1  724  283           
03 28.12.10 200 (Ю) >10 км    10/0 средняя 
[Ac und]
+7.9 +2.5 69 +8  1019.4  724  283           
06 28.12.10 190 (Ю) >10 км    9/0 средняя 
[Ac trans]
+10.2 -0.1 49 +10  1019.7  0.6  725  281  +6.7         
09 28.12.10 130 (ЮВ) >10 км    9/0 средняя 
[Ac trans]
+14.1 +1.6 43 +15  1018.1  -0.8  724  277           
12 28.12.10 120 (ЮВ) >10 км    9/0 средняя, верхняя 
[Ac trans|Ci fib]
+13.2 +4.2 54 +13  1017.5  -0.7  723  277           
15 28.12.10 130 (ЮВ) >10 км    10/0 средняя 
[Ac und]
+10.2 +0.7 52 +10  1017.8  -0.3  723  281    +15.5       
18 28.12.10 140 (ЮВ) >10 км    6/0 средняя 
[Ac trans]
+10.3 +0.3 50 +10  1017.1  -0.6  723  280    +15.5       
21 28.12.10 120 (ЮВ) >10 км    10/0 средняя 
[Ac und]
+9.3 -1.2 48 +8  1015.6  722  281           
00 29.12.10 130 (ЮВ) >10 км    10/0 средняя 
[Ac und]
+8.7 -2.2 46 +7  1014.6  -1.1  721  282           
03 29.12.10 190 (Ю) >10 км    8/0 средняя 
[Ac trans]
+8.3 -0.2 55 +7  1014.4  -0.3  720  282           
06 29.12.10 280 (З) >10 км    10/0 средняя, верхняя 
[Ac trans|Ci fib]
+11.2 +1.3 50 +12  1015.8  1.8  722  279  +6.7         
09 29.12.10 300 (СЗ) >10 км    10/0 средняя, верхняя 
[Ac trans|Ci fib]
+12.1 +4.9 61 +12  1016.5  0.9  723  278           
12 29.12.10 300 (СЗ) 10 км    10/3 1000 м средняя 
[Sc|Ac und]
+8.5 +6 84 +7  1019  1.7  724  282           
15 29.12.10 330 (СЗ) 10 км    10/8 600 м средняя 
[Sc|Ac und]
+6.9 +5.8 93 +7  1021.2  1.8  725  284    +13       
18 29.12.10 340 (С) 4000 м  дымка  10/5 700 м средняя 
[Sc|Ac und]
+6.2 +5.4 95 +6  1021.8  0.5  726  285    +13       
21 29.12.10 340 (С) 0100 м  туман  ?/?  
+5.1 +5 99 +3  1022.2  0.1  726  286           
00 30.12.10 350 (С) 0100 м  туман  ?/?  
+3.6 +3.5 99 +3  1023  0.5  726  288           
03 30.12.10 350 (С) 1600 м  морось{туман}  10/10 50 м 
[St]
+3.9 +3.8 99 +5  1022.7  -0.3  726  288           
06 30.12.10 360 (С) 0300 м  слаб. морось{туман}  ?/?  
+3.9 +3.8 99 +5  1022.1  -0.5  725  288  +3.6         
09 30.12.10 190 (Ю) 4000 м  дымка{морось, туман}  10/8 300 м средняя 
[Sc|Ac und]
+4.9 +4.8 99 +5  1021  -0.9  725  286           
12 30.12.10 360 (С) 4000 м  дымка{морось, туман}  10/10 150 м 
[St]
+5.4 +4.6 95 +5  1019.8  -1.1  724  285           
15 30.12.10 010 (С) 0400 м  туман  ?/?  
+5.4 +4.6 95 +5  1019.8  0.5  724  285    +5.9       
18 30.12.10 тихо ()   0200 м  туман  ?/? 600 
+4 +3.9 99 +4  1020.3  -0.2  724  287    +5.9  0.0     
21 30.12.10 290 (З) 0200 м  слаб. морось{туман}  ?/?  
+3.3 +3.2 99 +2  1021.5  725  288           
00 31.12.10 290 (З) 0200 м  слаб. морось{туман}  ?/?  
+2.1 +2 99 +1  1022  0.3  725  290           
03 31.12.10 340 (С) 0200 м  туман{морось}  ?/?  
+1.5 +1.4 99 +1  1022.5  0.3  725  290           
06 31.12.10 350 (С) 0100 м  слаб. морось{туман}  ?/?  
+1.2 +1.1 99 1023.2  0.6  726  291  +1.5         
09 31.12.10 360 (С) 4000 м  слаб. ливневой снег{морось}  10/8 100 м кучево-дожд., средняя 
[Cb cap|Ac und]
+0.5 +0.5 100 -1  1022.8  -0.4  725  292           
12 31.12.10 350 (С) 0100 м  туман{ливн. осадки, морось}  ?/?  
-0.2 -0.2 100 -2  1022.2  -0.7  725  292           
15 31.12.10 360 (С) >10 км  {ливн. осадки, туман}  10/8 500 м кучево-дожд., средняя 
[Cb calv|Ac und]
-0.9 -1.3 97 -3  1022.4  725  293    +1.5       
18 31.12.10 360 (С) >10 км  {ливн. осадки, туман}  10/8 150 м средняя 
[Sc diur, vesp|Ac und]
-1.5 -2 96 -3  1021.5  -0.9  724  294    +1.5       
21 31.12.10 020 (С) >10 км  слаб. ливневой снег  10/8 300 м кучево-дожд., средняя 
[Cb cap|Ac und]
-1.9 -2.4 96 -3  1021  -0.6  724  294           
00 01.01.11 050 (СВ) 10 км  сильн. ливневой дождь  10/8 240 м кучево-дожд., средняя 
[Cb cap|Ac und]
-2.6 -2.9 98 -4  1020.2  -0.9  723  294           
03 01.01.11 тихо ()   10 км  слаб. ливневой снег  10/8 120 м кучево-дожд., средняя 
[Cb cap|Ac und]
-2.6 -3 97 -3  1019.8  -0.3  723  294        равномерный
мокрый или
старый снег
100% 
Время (UTC), дата Ветер
(°,м/с) 
Видим.   Явления Облачность Т
(°С)
Тd
(°С)
f(%) Тe
(°С)
Pmin
(гПа)
dP
(гПа)
Po
(мм)
O2
(г/м3)
Тmin Tmax R s Состояние
почвы